Location: Prairie Dale
(45.6972°N, 104.5033°W)
Time: 07:23:56
(UTC+00:00)

Envisat - Pass Details

Date: 27 January 2022
Orbit: 764 x 765 km, 98.2° (Epoch: 16 May)

Event Time Altitude Azimuth Distance (km) Brightness Sun altitude
Rises 10:22:56 0° 33° (NNE) 3,240 6.8 -42.0°
Reaches altitude 10° 10:26:45 10° 62° (ENE) 2,308 6.1 -41.4°
Maximum altitude 10:28:53 13° 87° (E) 2,128 5.9 -41.0°
Drops below altitude 10° 10:31:02 10° 112° (ESE) 2,301 5.9 -40.6°
Sets 10:34:47 0° 141° (SE) 3,220 6.5 -40.0°
